Regional Weather Roundup
Issued by NWS Upton, NY

Current Version | Previous Version | Text Only | Print | Product List | Glossary On
Versions: 1 2 3 4 5 6 7 8 9 10 11 12 13 14 15 16 17 18 19 20 21 22 23 24 25 26 27
000
ASUS41 KOKX 212109
RWROKX

REGIONAL WEATHER ROUNDUP
NATIONAL WEATHER SERVICE NEW YORK NY
500 PM EDT FRI JUL 21 2017

NOTE: "FAIR" INDICATES FEW OR NO CLOUDS BELOW 12,000 FEET WITH NO
SIGNIFICANT WEATHER AND/OR OBSTRUCTIONS TO VISIBILITY.

NYZ071-072-176-178-NJZ106-104-212200-
NEW YORK CITY METRO AREA

CITY           SKY/WX    TMP DP  RH WIND       PRES   REMARKS
Central Park   MOSUNNY   90  64  42 VRB6      29.89S HX  91
Bronx Bot Gard   N/A     91  63  38 W15       29.87S HX  92
LaGuardia APRT PTSUNNY   93  64  38 W13       29.85S HX  94
Kennedy INTL   PTSUNNY   94  64  37 W14       29.86F HX  95
Breezy Point     N/A     82 N/A N/A SW6         N/A
Newark/Liberty CLOUDY    93  66  40 W14G20    29.86S HX  96
Teterboro      CLOUDY    91  64  40 NW15      29.84F HX  92
$$

NYZ177-179-078>081-212200-
LONG ISLAND NEW YORK

CITY           SKY/WX    TMP DP  RH WIND       PRES   REMARKS
Jones Beach      N/A     84 N/A N/A SW8G16      N/A
Matinecock PT    N/A     84 N/A N/A W13         N/A
Farmingdale    MOSUNNY   92  61  35 NW9G16    29.85F HX  92
MacArthur/ISP  PTSUNNY   92  60  34 NW15      29.84F HX  91
Shirley        MOSUNNY   89  72  56 VRB6      29.85F HX  96
Mt Sinai Harb    N/A     90 N/A N/A W8G14       N/A
Westhampton    MOSUNNY   87  67  51 SW15      29.87S HX  90
East Hampton   FAIR      83  69  63 S7        29.85S
Montauk          N/A     84  71  65 SW7       29.86R
$$

NYZ052-065-067-212200-
HUDSON VALLEY

CITY           SKY/WX    TMP DP  RH WIND       PRES   REMARKS
White Plains   NOT AVBL
Larchmont Harb   N/A     88 N/A N/A W14G20      N/A
Croton O-T Hud   N/A     88 N/A N/A W12         N/A
Newburgh       NOT AVBL
Montgomery     SUNNY     89  64  43 W12       29.86S HX  90
Poughkeepsie   MOSUNNY   90  66  45 SW14G23   29.82F HX  92
Albany         CLOUDY    85  62  46 NW9G20    29.84F
$$

NJZ001-105-106-008-010-013-015-019>022-104-212200-
NEW JERSEY

CITY           SKY/WX    TMP DP  RH WIND       PRES   REMARKS
Newark/Liberty CLOUDY    93  66  40 W14G20    29.86S HX  96
Teterboro      CLOUDY    91  64  40 NW15      29.84F HX  92
Caldwell       MOSUNNY   90  66  45 VRB3      29.87F HX  92
Somerville     MOSUNNY   90  70  51 W6        29.86F HX  95
Linden         NOT AVBL
Perth Amboy      N/A     88 N/A N/A NW10        N/A
Sussex         MOSUNNY   88  67  49 VRB3      29.89S HX  91
Andover          N/A     87  67  51 SW6       29.89F HX  90
Trenton        SUNNY     91  67  44 W10       29.88F HX  94
Millville      MOSUNNY   91  74  57 W6        29.89F HX 100
Atlantic City  CLOUDY    88  73  61 S10       29.89F HX  95
Wrightstown    MOSUNNY   92  67  44 NW6       29.85F HX  95
Toms River     CLOUDY    93  69  45 N8        29.88F HX  98
Belmar         CLOUDY    92  70  48 W9        29.89F HX  97
$$

PAZ047>061-062-071-212200-
EASTERN PENNSYLVANIA

CITY           SKY/WX    TMP DP  RH WIND       PRES   REMARKS
Philadelphia   PTSUNNY   93  68  43 SW12      29.89F HX  97
Allentown      MOSUNNY   90  68  48 W9        29.89F HX  94
Scranton       PTSUNNY   86  69  56 W9        29.91F HX  90
$$

CTZ002-004>006-009-010-012-RIZ004-006-007-MAZ004-011-015-212200-
SOUTHERN NEW ENGLAND
 IN CT

CITY           SKY/WX    TMP DP  RH WIND       PRES   REMARKS
Bradley INTL   CLOUDY    89  64  43 NW12      29.83S HX  90
Hartford       SUNNY     91  63  39 W12       29.82S HX  92
Danbury        MOSUNNY   86  67  52 SW9       29.88S
Wtrbury/Oxford MOSUNNY   84  63  48 W7        29.89S
Bridgeport     MOSUNNY   90  67  46 SW13      29.84F HX  93
Meriden        MOSUNNY   88  65  46 W9        29.84S HX  90
New Haven      PTSUNNY   86  68  54 SW10      29.84F
Chester        FAIR      86  70  58 VRB7      29.86S HX  90
Groton         MOSUNNY   84  68  58 W12       29.83S
Wilimantic     MOSUNNY   90  64  42 W10       29.83S HX  91

 IN RI

CITY           SKY/WX    TMP DP  RH WIND       PRES   REMARKS
Providence     PTSUNNY   89  67  47 W10G23    29.81S HX  92
Block Island   CLOUDY    79  71  76 SW17      29.85R
Westerly       MOSUNNY   85  69  58 SW8G16    29.84S
 IN MA

CITY           SKY/WX    TMP DP  RH WIND       PRES   REMARKS
Boston         PTSUNNY   90  61  37 W9        29.77F HX  90
Worcester      MOSUNNY   83  61  47 W9        29.85S
Westfield      MOSUNNY   89  64  43 W9        29.82F HX  90
Provincetown   SUNNY     85  63  47 S8        29.79F
Nantucket      CLOUDY    77  70  79 SW15      29.82F
$$

ANZ330-335-338-340-345-350-353-355-212200-
COASTAL MARINE OBSERVATIONS


STATION/POSITION TIME  SKY/WX   TEMP    WIND        PRES    VSBY  WAVE
                                AIR SEA DIR/SP/G                  HT/PER
                 (UTC)          (F)     (DEG/KT/KT) (MB)    (MI)  (FT/S)
NY HARB ENTRANCE 1950            79 77  210/  8/  8 1011.1          2/ 6
20 S FIRE ISLAND 2050            79 77  220/ 10/ 12 1010.8          3/ 6
GREAT SOUTH BAY  2030            81 83  230/ 12/ 16   N/A
23 SSW MONTAUK P 1950            78 77              1011.2          3/ 6
15 E BARNEGAT LI 2030               81                N/A           3/ 6
HUDSON CANYON    1950            81 81  250/ 10/ 10 1011.2          3/ 5
KINGS POINT      2042            85 78  350/ 10/ 14 1010.9
EXECUTION ROCKS  2045            86     270/ 12/ 16   N/A
CENTRAL LI SOUND 2015            81     230/  8/ 10   N/A           1
EASTERN LI SOUND NOT AVBL
ROBBINS REEF     2036                   270/ 12/ 15 1011.9
$$


>>>>>>>>>>>>>>>>>>>>>>>>>>>> KEY <<<<<<<<<<<<<<<<<<<<<<<<<<<
>                                                          <
>     SKY/WX - Sky Condition/Present Weather               <
>     TMP    - Temperature in Fahrenheit                   <
>     DP     - Dew Point in Fahrenheit                     <
>     RH     - Relative Humidity in Percent                <
>     WIND   - Direction (from) and Speed in MPH           <
>     PRES   - Mean Sea Level Pressure (inches of Hg)      <
>     WCI    - Wind Chill Index                            <
>     VSB    - VISIBILITY IN MILES                         <
>     HX     - HEAT INDEX                                  <
>     TC     - TEMPERATURE IN CELSIUS                      <
>     VRB    - VARIABLE WIND DIRECTION                     <
>                                                          <
>>>>>>>>>>>>>>>>>>>>>>>>>>>> KEY <<<<<<<<<<<<<<<<<<<<<<<<<<<




USA.gov is the U.S. government's official web portal to all federal, state and local government web resources and services.